Flag for Brazil

Past Weather in Brasilia, Distrito Federal, Brazil — Yesterday and Last 2 Weeks

Now
84 °F

Scattered clouds.


Feels Like: 83 °F
Forecast: 85 / 65 °F
Wind: 9 mph from Northeast

Location: Brasilia Aeroporto
Current Time: Sep 25, 2020 at 2:08:44 pm
Latest Report: Sep 25, 2020 at 1:00 pm
Visibility: N/A
Pressure30.12 "Hg(26.62 "Hg at 1091m altitude)
Humidity: 40%
Dew Point: 57 °F
Location of BrasiliaLocation

Past Weather in Brasilia — Graph

°F

Brasilia Temperature Yesterday

Maximum temperature yesterday: 84 °F (at 4:00 pm)
Minimum temperature yesterday: 66 °F (at 2:00 am)
Average temperature yesterday: 74 °F

High & Low Weather Summary for the Past Weeks

 TemperatureHumidityPressure
High95 °F (Sep 19, 2:00 pm)94% (Sep 21, 4:00 pm)30.30 "Hg (Sep 21, 4:00 pm)
Low57 °F (Sep 11, 6:00 am)15% (Sep 11, 1:00 pm)29.95 "Hg (Sep 20, 3:00 pm)
Average75 °F49%30.12 "Hg
* Reported Sep 10 1:00 pm — Sep 25 1:00 pm, Brasilia. Weather by CustomWeather, © 2020

Note: Actual official high and low records may vary slightly from our data, if they occured in-between our weather recording intervals... More about our weather records

Brasilia Weather History for the Previous 24 Hours

Scroll right to see more
 ConditionsComfort  
Time TempWeatherWind HumidityBarometerVisibility
1:00 pm
Fri, Sep 25
84 °FScattered clouds.9 mph40%30.12 "HgN/A
12:00 pm84 °FScattered clouds.10 mph40%30.15 "HgN/A
11:00 am81 °FPassing clouds.13 mph48%30.18 "HgN/A
10:00 am79 °FPassing clouds.12 mph54%30.18 "HgN/A
9:00 am75 °FSunny.10 mph61%30.21 "Hg10 mi
8:00 am72 °FSunny.9 mph69%30.18 "Hg10 mi
7:00 am68 °FSunny.6 mph78%30.18 "Hg10 mi
6:00 am66 °FSunny.2 mph78%30.15 "Hg10 mi
5:00 am68 °FClear.3 mph78%30.15 "Hg10 mi
4:00 am68 °FClear.12 mph78%30.12 "Hg10 mi
3:00 am64 °FClear.1 mph83%30.12 "Hg10 mi
2:00 am66 °FClear.2 mph83%30.12 "Hg10 mi
1:00 am72 °FClear.3 mph65%30.15 "Hg10 mi
12:00 am68 °FClear.3 mph78%30.15 "Hg10 mi
11:00 pm
Thu, Sep 24
73 °FPassing clouds.5 mph65%30.18 "HgN/A
10:00 pm75 °FClear.7 mph57%30.18 "Hg10 mi
9:00 pm77 °FPassing clouds.7 mph57%30.15 "HgN/A
8:00 pm79 °FPassing clouds.7 mph54%30.12 "HgN/A
7:00 pm81 °FPassing clouds.7 mph51%30.12 "HgN/A
6:00 pm82 °FScattered clouds.9 mph48%30.12 "HgN/A
5:00 pm84 °FScattered clouds.8 mph43%30.09 "HgN/A
4:00 pm84 °FScattered clouds.7 mph45%30.09 "HgN/A
3:00 pm82 °FScattered clouds.8 mph48%30.09 "HgN/A
2:00 pm82 °FScattered clouds.7 mph51%30.12 "HgN/A
Weather by CustomWeather, © 2020

See weather overview